| time (UTC) | temp F | wind direction | speed MPH | gust MPH | rain 1hr in | rain 24hr in | rain mn in | humidity % | barometer mb |
| 20260504194038 | 81 | 334 | 3.0 | 3.0 | 0.00 | 0.00 | 0.00 | 28 | 1030.9 |
| 20260504193535 | 80 | 197 | 3.0 | 5.0 | 0.00 | 0.00 | 0.00 | 25 | 1030.6 |
| 20260504193034 | 80 | 342 | 0.0 | 5.0 | 0.00 | 0.00 | 0.00 | 25 | 1031.0 |
| 20260504192532 | 80 | 253 | 3.0 | 5.0 | 0.00 | 0.00 | 0.00 | 27 | 1031.0 |
| 20260504192030 | 80 | 238 | 1.0 | 3.0 | 0.00 | 0.00 | 0.00 | 28 | 1031.0 |
| 20260504191527 | 80 | 229 | 4.0 | 6.0 | 0.00 | 0.00 | 0.00 | 28 | 1031.3 |
| 20260504191023 | 80 | 256 | 5.0 | 7.0 | 0.00 | 0.00 | 0.00 | 27 | 1031.2 |
| 20260504190519 | 79 | 240 | 2.0 | 6.0 | 0.00 | 0.00 | 0.00 | 26 | 1031.5 |
| 20260504190015 | 79 | 215 | 1.0 | 3.0 | 0.00 | 0.00 | 0.00 | 29 | 1031.4 |
| 20260504185513 | 79 | 236 | 2.0 | 7.0 | 0.00 | 0.00 | 0.00 | 27 | 1031.6 |
| 20260504185009 | 78 | 226 | 3.0 | 7.0 | 0.00 | 0.00 | 0.00 | 29 | 1031.4 |
| 20260504184504 | 78 | 263 | 2.0 | 2.0 | 0.00 | 0.00 | 0.00 | 31 | 1031.5 |
| 20260504184000 | 78 | 186 | 1.0 | 7.0 | 0.00 | 0.00 | 0.00 | 29 | 1031.3 |
| 20260504183457 | 77 | 230 | 4.0 | 6.0 | 0.00 | 0.00 | 0.00 | 29 | 1031.3 |
| 20260504182955 | 77 | 220 | 4.0 | 13.0 | 0.00 | 0.00 | 0.00 | 29 | 1031.6 |
| 20260504182452 | 77 | 222 | 3.0 | 5.0 | 0.00 | 0.00 | 0.00 | 26 | 1031.6 |
| 20260504181949 | 78 | 228 | 3.0 | 6.0 | 0.00 | 0.00 | 0.00 | 31 | 1031.7 |
| 20260504181446 | 77 | 269 | 3.0 | 10.0 | 0.00 | 0.00 | 0.00 | 30 | 1031.5 |
| 20260504180945 | 77 | 173 | 2.0 | 5.0 | 0.00 | 0.00 | 0.00 | 29 | 1031.5 |
| 20260504180443 | 76 | 232 | 3.0 | 7.0 | 0.00 | 0.00 | 0.00 | 31 | 1031.6 |
| 20260504175941 | 76 | 224 | 2.0 | 7.0 | 0.00 | 0.00 | 0.00 | 31 | 1031.9 |
| 20260504175438 | 77 | 250 | 2.0 | 5.0 | 0.00 | 0.00 | 0.00 | 30 | 1031.8 |
| 20260504174936 | 76 | 203 | 2.0 | 3.0 | 0.00 | 0.00 | 0.00 | 31 | 1031.8 |
| 20260504174433 | 76 | 219 | 3.0 | 9.0 | 0.00 | 0.00 | 0.00 | 31 | 1032.0 |
| 20260504173930 | 77 | 225 | 4.0 | 6.0 | 0.00 | 0.00 | 0.00 | 30 | 1032.2 |
| 20260504173426 | 76 | 236 | 2.0 | 2.0 | 0.00 | 0.00 | 0.00 | 33 | 1032.0 |
| 20260504172924 | 75 | 188 | 1.0 | 2.0 | 0.00 | 0.00 | 0.00 | 33 | 1032.1 |
| 20260504172420 | 75 | 232 | 5.0 | 6.0 | 0.00 | 0.00 | 0.00 | 34 | 1032.3 |
| 20260504171916 | 76 | 251 | 4.0 | 7.0 | 0.00 | 0.00 | 0.00 | 32 | 1032.5 |
| 20260504171414 | 76 | 209 | 3.0 | 9.0 | 0.00 | 0.00 | 0.00 | 31 | 1032.4 |
| 20260504170911 | 75 | 220 | 1.0 | 5.0 | 0.00 | 0.00 | 0.00 | 34 | 1032.2 |
| 20260504170407 | 75 | 235 | 3.0 | 5.0 | 0.00 | 0.00 | 0.00 | 33 | 1032.5 |
| 20260504160326 | 72 | 160 | 1.0 | 3.0 | 0.00 | 0.00 | 0.00 | 42 | 1033.0 |
| 20260504150751 | 69 | 217 | 2.0 | 2.0 | 0.00 | 0.00 | 0.00 | 50 | 1033.2 |
| 20260504150247 | 68 | 222 | 3.0 | 3.0 | 0.00 | 0.00 | 0.00 | 48 | 1033.1 |
| 20260504141217 | 64 | 210 | 5.0 | 6.0 | 0.00 | 0.00 | 0.00 | 54 | 1033.6 |
| 20260504140714 | 64 | 249 | 2.0 | 3.0 | 0.00 | 0.00 | 0.00 | 55 | 1033.3 |
| 20260504140209 | 64 | 199 | 1.0 | 5.0 | 0.00 | 0.00 | 0.00 | 57 | 1033.3 |
| 20260504130638 | 58 | 218 | 0.0 | 1.0 | 0.00 | 0.00 | 0.00 | 75 | 1033.6 |
| 20260504130134 | 57 | 219 | 2.0 | 2.0 | 0.00 | 0.00 | 0.00 | 77 | 1033.6 |
| 20260504110525 | 44 | 44 | 0.0 | 0.0 | 0.00 | 0.00 | 0.00 | 96 | 1033.7 |
| 20260504100442 | 44 | 44 | 0.0 | 0.0 | 0.00 | 0.00 | 0.00 | 95 | 1033.5 |
| 20260504081835 | 45 | 44 | 0.0 | 0.0 | 0.00 | 0.00 | 0.00 | 92 | 1033.5 |
| 20260504081331 | 45 | 44 | 0.0 | 0.0 | 0.00 | 0.00 | 0.00 | 92 | 1033.6 |
| 20260504080827 | 45 | 44 | 0.0 | 0.0 | 0.00 | 0.00 | 0.00 | 91 | 1033.5 |
| 20260504080325 | 45 | 44 | 0.0 | 0.0 | 0.00 | 0.00 | 0.00 | 91 | 1033.6 |
| 20260504070252 | 44 | 88 | 0.0 | 1.0 | 0.00 | 0.00 | 0.00 | 90 | 1033.3 |
| 20260504060212 | 44 | 178 | 1.0 | 1.0 | 0.00 | 0.00 | 0.00 | 91 | 1033.6 |
| 20260504050640 | 44 | 179 | 0.0 | 0.0 | 0.00 | 0.00 | 0.00 | 91 | 1033.8 |
| 20260504050137 | 44 | 179 | 0.0 | 0.0 | 0.00 | 0.00 | 0.00 | 91 | 1033.8 |
| 20260504045634 | 44 | 179 | 0.0 | 0.0 | 0.00 | 0.00 | 0.00 | 91 | 1033.9 |
| 20260504045134 | 44 | 179 | 0.0 | 0.0 | 0.00 | 0.00 | 0.00 | 91 | 1034.0 |
| 20260504044633 | 44 | 179 | 0.0 | 0.0 | 0.00 | 0.00 | 0.00 | 91 | 1033.9 |
| 20260504044129 | 44 | 179 | 0.0 | 0.0 | 0.00 | 0.00 | 0.00 | 90 | 1033.9 |
| 20260504043626 | 44 | 179 | 0.0 | 0.0 | 0.00 | 0.00 | 0.00 | 90 | 1034.0 |
| 20260504043124 | 44 | 179 | 0.0 | 0.0 | 0.00 | 0.00 | 0.00 | 90 | 1033.9 |
| 20260504042621 | 44 | 179 | 0.0 | 0.0 | 0.00 | 0.00 | 0.00 | 90 | 1033.8 |
| 20260504042117 | 44 | 179 | 0.0 | 0.0 | 0.00 | 0.00 | 0.00 | 90 | 1033.9 |
| 20260504041613 | 45 | 179 | 0.0 | 0.0 | 0.00 | 0.00 | 0.00 | 90 | 1034.0 |
| 20260504041110 | 45 | 179 | 0.0 | 0.0 | 0.00 | 0.00 | 0.00 | 89 | 1034.0 |
| 20260504040607 | 45 | 179 | 0.0 | 0.0 | 0.00 | 0.00 | 0.00 | 89 | 1033.9 |
| 20260504040103 | 45 | 179 | 0.0 | 0.0 | 0.00 | 0.00 | 0.00 | 89 | 1033.9 |
| 20260504035600 | 45 | 179 | 0.0 | 0.0 | 0.00 | 0.00 | 0.00 | 88 | 1033.9 |
| 20260504035056 | 45 | 179 | 0.0 | 0.0 | 0.00 | 0.00 | 0.00 | 88 | 1033.9 |
| 20260504034555 | 45 | 179 | 0.0 | 0.0 | 0.00 | 0.00 | 0.00 | 88 | 1033.9 |
| 20260504034051 | 45 | 179 | 0.0 | 0.0 | 0.00 | 0.00 | 0.00 | 87 | 1033.8 |
| 20260504033549 | 46 | 179 | 0.0 | 0.0 | 0.00 | 0.00 | 0.00 | 87 | 1033.9 |
| 20260504033046 | 46 | 179 | 0.0 | 0.0 | 0.00 | 0.00 | 0.00 | 87 | 1033.7 |
| 20260504032543 | 46 | 179 | 0.0 | 0.0 | 0.00 | 0.00 | 0.00 | 87 | 1033.6 |
| 20260504032040 | 46 | 179 | 0.0 | 0.0 | 0.00 | 0.00 | 0.00 | 86 | 1033.8 |
| 20260504031537 | 46 | 179 | 0.0 | 0.0 | 0.00 | 0.00 | 0.00 | 86 | 1033.8 |
| 20260504031033 | 46 | 179 | 0.0 | 0.0 | 0.00 | 0.00 | 0.00 | 86 | 1033.8 |
| 20260504030531 | 46 | 179 | 0.0 | 0.0 | 0.00 | 0.00 | 0.00 | 86 | 1033.7 |
| 20260504030026 | 46 | 179 | 0.0 | 0.0 | 0.00 | 0.00 | 0.00 | 85 | 1033.7 |
| 20260504025524 | 46 | 179 | 0.0 | 0.0 | 0.00 | 0.00 | 0.00 | 85 | 1033.6 |
| 20260504025020 | 46 | 179 | 0.0 | 0.0 | 0.00 | 0.00 | 0.00 | 84 | 1033.6 |
| 20260504024518 | 46 | 179 | 0.0 | 0.0 | 0.00 | 0.00 | 0.00 | 84 | 1033.8 |
| 20260504024014 | 47 | 179 | 0.0 | 0.0 | 0.00 | 0.00 | 0.00 | 83 | 1033.7 |
| 20260504023511 | 47 | 179 | 0.0 | 0.0 | 0.00 | 0.00 | 0.00 | 82 | 1033.9 |
| 20260504023007 | 47 | 179 | 0.0 | 0.0 | 0.00 | 0.00 | 0.00 | 81 | 1033.5 |
| 20260504022503 | 47 | 179 | 0.0 | 0.0 | 0.00 | 0.00 | 0.00 | 81 | 1033.7 |
| 20260504021959 | 48 | 179 | 0.0 | 0.0 | 0.00 | 0.00 | 0.00 | 80 | 1033.5 |
| 20260504021457 | 48 | 179 | 0.0 | 0.0 | 0.00 | 0.00 | 0.00 | 79 | 1033.8 |
| 20260504020954 | 48 | 179 | 0.0 | 0.0 | 0.00 | 0.00 | 0.00 | 78 | 1033.6 |
| 20260504020450 | 48 | 179 | 0.0 | 0.0 | 0.00 | 0.00 | 0.00 | 78 | 1033.6 |
| 20260504015947 | 48 | 179 | 0.0 | 0.0 | 0.00 | 0.00 | 0.00 | 77 | 1033.5 |
| 20260504015443 | 49 | 179 | 0.0 | 0.0 | 0.00 | 0.00 | 0.00 | 76 | 1033.6 |
| 20260504014939 | 49 | 179 | 0.0 | 0.0 | 0.00 | 0.00 | 0.00 | 75 | 1033.7 |
| 20260504014436 | 49 | 179 | 0.0 | 0.0 | 0.00 | 0.00 | 0.00 | 74 | 1033.5 |
| 20260504013932 | 50 | 179 | 0.0 | 0.0 | 0.00 | 0.00 | 0.00 | 73 | 1033.7 |
| 20260504013431 | 50 | 179 | 0.0 | 0.0 | 0.00 | 0.00 | 0.00 | 72 | 1033.7 |
| 20260504012927 | 50 | 179 | 0.0 | 0.0 | 0.00 | 0.00 | 0.00 | 71 | 1033.4 |
| 20260504012425 | 50 | 179 | 0.0 | 0.0 | 0.00 | 0.00 | 0.00 | 71 | 1033.3 |
| 20260504011922 | 51 | 179 | 0.0 | 0.0 | 0.00 | 0.00 | 0.00 | 69 | 1033.4 |
| 20260504011419 | 51 | 179 | 0.0 | 0.0 | 0.00 | 0.00 | 0.00 | 68 | 1033.3 |
| 20260504010915 | 51 | 179 | 0.0 | 0.0 | 0.00 | 0.00 | 0.00 | 67 | 1033.2 |
| 20260504010411 | 51 | 179 | 0.0 | 0.0 | 0.00 | 0.00 | 0.00 | 65 | 1033.1 |
| 20260504005907 | 52 | 179 | 0.0 | 0.0 | 0.00 | 0.00 | 0.00 | 65 | 1033.0 |
| 20260504005404 | 52 | 179 | 0.0 | 0.0 | 0.00 | 0.00 | 0.00 | 64 | 1032.9 |
| 20260504004902 | 53 | 179 | 0.0 | 0.0 | 0.00 | 0.00 | 0.00 | 63 | 1033.0 |
| 20260504004400 | 53 | 179 | 0.0 | 0.0 | 0.00 | 0.00 | 0.00 | 61 | 1033.1 |
| 20260504003856 | 54 | 179 | 0.0 | 0.0 | 0.00 | 0.00 | 0.00 | 60 | 1032.9 |
| 20260504003352 | 54 | 179 | 0.0 | 0.0 | 0.00 | 0.00 | 0.00 | 59 | 1032.8 |
| 20260504002849 | 55 | 179 | 0.0 | 0.0 | 0.00 | 0.00 | 0.00 | 57 | 1032.8 |
| 20260504002346 | 55 | 179 | 0.0 | 0.0 | 0.00 | 0.00 | 0.00 | 55 | 1032.6 |
| 20260504001844 | 56 | 179 | 0.0 | 0.0 | 0.00 | 0.00 | 0.00 | 54 | 1032.7 |
| 20260504001341 | 57 | 179 | 0.0 | 0.0 | 0.00 | 0.00 | 0.00 | 52 | 1032.7 |
| 20260504000837 | 57 | 179 | 0.0 | 0.0 | 0.00 | 0.00 | 0.00 | 51 | 1032.6 |
| 20260504000335 | 58 | 179 | 0.0 | 0.0 | 0.00 | 0.00 | 0.00 | 50 | 1032.4 |
| 20260503235832 | 59 | 179 | 0.0 | 0.0 | 0.00 | 0.00 | 0.00 | 46 | 1032.5 |
| 20260503235330 | 59 | 179 | 0.0 | 0.0 | 0.00 | 0.00 | 0.00 | 46 | 1032.6 |
| 20260503234827 | 60 | 179 | 0.0 | 0.0 | 0.00 | 0.00 | 0.00 | 43 | 1032.5 |
| 20260503234324 | 60 | 178 | 0.0 | 0.0 | 0.00 | 0.00 | 0.00 | 43 | 1032.5 |
| 20260503233822 | 61 | 179 | 0.0 | 0.0 | 0.00 | 0.00 | 0.00 | 42 | 1032.4 |
| 20260503233318 | 62 | 178 | 0.0 | 0.0 | 0.00 | 0.00 | 0.00 | 42 | 1032.4 |
| 20260503232814 | 63 | 179 | 0.0 | 0.0 | 0.00 | 0.00 | 0.00 | 41 | 1032.5 |
| 20260503232312 | 64 | 178 | 0.0 | 0.0 | 0.00 | 0.00 | 0.00 | 38 | 1032.4 |
| 20260503231810 | 65 | 242 | 0.0 | 0.0 | 0.00 | 0.00 | 0.00 | 34 | 1032.3 |
| 20260503231307 | 65 | 243 | 1.0 | 3.0 | 0.00 | 0.00 | 0.00 | 28 | 1032.3 |
| 20260503230802 | 66 | 28 | 0.0 | 1.0 | 0.00 | 0.00 | 0.00 | 33 | 1032.4 |
| 20260503230300 | 66 | 217 | 0.0 | 2.0 | 0.00 | 0.00 | 0.00 | 27 | 1032.4 |
| 20260503225757 | 66 | 41 | 1.0 | 1.0 | 0.00 | 0.00 | 0.00 | 27 | 1032.5 |
| 20260503225252 | 66 | 15 | 0.0 | 1.0 | 0.00 | 0.00 | 0.00 | 27 | 1032.5 |
| 20260503224749 | 68 | 250 | 1.0 | 5.0 | 0.00 | 0.00 | 0.00 | 25 | 1032.4 |
| 20260503224247 | 68 | 247 | 2.0 | 2.0 | 0.00 | 0.00 | 0.00 | 27 | 1032.5 |
| 20260503223744 | 68 | 270 | 3.0 | 2.0 | 0.00 | 0.00 | 0.00 | 26 | 1032.6 |
| 20260503223242 | 68 | 33 | 3.0 | 3.0 | 0.00 | 0.00 | 0.00 | 25 | 1032.4 |
| 20260503222738 | 68 | 29 | 2.0 | 2.0 | 0.00 | 0.00 | 0.00 | 26 | 1032.4 |
| 20260503222236 | 69 | 45 | 1.0 | 2.0 | 0.00 | 0.00 | 0.00 | 26 | 1032.5 |
| 20260503221734 | 69 | 12 | 2.0 | 2.0 | 0.00 | 0.00 | 0.00 | 24 | 1032.4 |
| 20260503221232 | 69 | 218 | 1.0 | 5.0 | 0.00 | 0.00 | 0.00 | 26 | 1032.3 |
| 20260503220728 | 70 | 53 | 1.0 | 5.0 | 0.00 | 0.00 | 0.00 | 25 | 1032.3 |
| 20260503220225 | 70 | 248 | 2.0 | 3.0 | 0.00 | 0.00 | 0.00 | 25 | 1032.3 |
| 20260503215721 | 69 | 225 | 1.0 | 2.0 | 0.00 | 0.00 | 0.00 | 26 | 1032.4 |
| 20260503215219 | 68 | 222 | 1.0 | 5.0 | 0.00 | 0.00 | 0.00 | 26 | 1032.3 |
| 20260503214717 | 68 | 345 | 3.0 | 3.0 | 0.00 | 0.00 | 0.00 | 26 | 1032.2 |
| 20260503214213 | 69 | 213 | 2.0 | 3.0 | 0.00 | 0.00 | 0.00 | 27 | 1032.3 |
| 20260503213711 | 69 | 317 | 2.0 | 7.0 | 0.00 | 0.00 | 0.00 | 25 | 1032.5 |
| 20260503213208 | 69 | 208 | 2.0 | 3.0 | 0.00 | 0.00 | 0.00 | 24 | 1032.3 |
| 20260503212705 | 68 | 175 | 2.0 | 5.0 | 0.00 | 0.00 | 0.00 | 26 | 1032.4 |
| 20260503212202 | 69 | 19 | 1.0 | 2.0 | 0.00 | 0.00 | 0.00 | 27 | 1032.4 |
| 20260503211700 | 70 | 216 | 1.0 | 8.0 | 0.00 | 0.00 | 0.00 | 26 | 1032.5 |
| 20260503211155 | 70 | 216 | 1.0 | 2.0 | 0.00 | 0.00 | 0.00 | 26 | 1032.5 |
| 20260503210652 | 68 | 64 | 1.0 | 3.0 | 0.00 | 0.00 | 0.00 | 25 | 1032.5 |
| 20260503210149 | 68 | 9 | 5.0 | 7.0 | 0.00 | 0.00 | 0.00 | 25 | 1032.3 |
| 20260503205644 | 68 | 306 | 4.0 | 7.0 | 0.00 | 0.00 | 0.00 | 25 | 1032.5 |
| 20260503205141 | 68 | 197 | 1.0 | 7.0 | 0.00 | 0.00 | 0.00 | 25 | 1032.4 |
| 20260503204637 | 69 | 345 | 3.0 | 7.0 | 0.00 | 0.00 | 0.00 | 25 | 1032.6 |
| 20260503204135 | 69 | 32 | 3.0 | 3.0 | 0.00 | 0.00 | 0.00 | 24 | 1032.6 |
| 20260503203632 | 69 | 203 | 1.0 | 3.0 | 0.00 | 0.00 | 0.00 | 28 | 1032.8 |
| 20260503203129 | 68 | 181 | 2.0 | 6.0 | 0.00 | 0.00 | 0.00 | 26 | 1032.7 |
| 20260503202627 | 69 | 21 | 2.0 | 5.0 | 0.00 | 0.00 | 0.00 | 25 | 1032.8 |
| 20260503202125 | 69 | 21 | 2.0 | 3.0 | 0.00 | 0.00 | 0.00 | 24 | 1032.6 |
| 20260503201622 | 69 | 354 | 2.0 | 3.0 | 0.00 | 0.00 | 0.00 | 23 | 1032.7 |
| 20260503201119 | 70 | 252 | 4.0 | 5.0 | 0.00 | 0.00 | 0.00 | 25 | 1032.9 |
| 20260503200616 | 69 | 244 | 3.0 | 3.0 | 0.00 | 0.00 | 0.00 | 26 | 1033.1 |
| 20260503200112 | 68 | 265 | 3.0 | 3.0 | 0.00 | 0.00 | 0.00 | 26 | 1033.0 |
| 20260503195610 | 68 | 149 | 1.0 | 5.0 | 0.00 | 0.00 | 0.00 | 26 | 1033.4 |
| 20260503195106 | 68 | 45 | 1.0 | 6.0 | 0.00 | 0.00 | 0.00 | 26 | 1033.2 |
| 20260503194604 | 68 | 230 | 4.0 | 5.0 | 0.00 | 0.00 | 0.00 | 27 | 1033.3 |